Find Starlink 3050

NORAD ID: 49180 Int'l Des: 2021-082 Owner: SPXS Country: US Constellation: starlink decayed
LEOCIRCULAR

Re-entered — Mar 25, 2026

正在加载3D地球...

About Starlink 3050

Starlink 3050 (NORAD 49180) is a starlink constellation satellite (v1.5) launched Sep 14, 2021 by SPXS of US. It re-entered the atmosphere on Mar 25, 2026. with a mass of 297.00 kg.

关于 Starlink 3050

正在加载描述...

高度历史

Loading altitude history...

两行轨道根数

1 49180U 21082BC 26084.20034426 .13125252 44702-5 18141-3 0 9997
2 49180 69.9781 215.8793 0009491 294.1172 65.9070 16.48580466250459
Epoch: Mar 25, 2026 • Age: 2218 hours

当前状态

Position data unavailable
发射日期 Sep 14, 2021
运行时间 4.7 years
衰减日期 Mar 25, 2026
类型 internet

技术详情

分类 Payload
质量 297.00 kg
干质量 275.00 kg
总质量 297.00 kg
长度 0.20 m
直径 2.80 m
跨度 9.00 m
形状 Box + pan
制造商 SPXS
平台类型 Starlink
阶段状态 Unknown Transfer Status
所有者/国家 SPXS/US

Most Searched